Miles City, MT

10:47 AM MDT on August 23, 2017 (GMT -0600)
Wiley

Weather History for KMLS - November, 2012

Change the Weather History Date:

Monday, November 5, 2012

  Actual Average Record
Temperature  
Mean Temperature 53 °F 38 °F  
Max Temperature 70 °F 49 °F 73 °F (2001)
Min Temperature 35 °F 26 °F 0 °F (2003)
Degree Days  
Heating Degree Days 12 27  
Month to date heating degree days 95 131  
Since 1 July heating degree days 815 942  
Cooling Degree Days 0 0  
Month to date cooling degree days 0 0  
Year to date cooling degree days 1107 730  
Growing Degree Days 2 (Base 50)    
Moisture  
Dew Point 35 °F    
Average Humidity 63    
Maximum Humidity 89    
Minimum Humidity 36    
Precipitation  
Precipitation 0.02 in 0.01 in 0.21 in (1943)
Month to date precipitation 0.05 0.08  
Year to date precipitation 5.74 11.84  
Sea Level Pressure  
Sea Level Pressure 30.06 in    
Wind  
Wind Speed 12 mph (SW)    
Max Wind Speed 39 mph    
Max Gust Speed 49 mph    
Visibility 10 miles    
Events      
T = Trace of Precipitation, MM = Missing Value Source: NWS Daily Summary

Daily Weather History Graph

Daily Weather History Graph

Search for Another Location

Airport or City:

Trip Planner

Search our weather history database for the weather conditions in past years. The results will help you decide how hot, cold, wet, or windy it might be!

Date:

Astronomy

Nov. 05, 2012 Rise Set
Actual Time 6:51 AM MST 4:42 PM MST
Civil Twilight 6:19 AM MST 5:13 PM MST
Nautical Twilight 5:43 AM MST 5:49 PM MST
Astronomical Twilight 5:08 AM MST 6:24 PM MST
Moon 10:23 PM MST (11/5) 12:13 PM MST (11/5)
Length of Visible Light 10h 54m
Length of Day
9h 50m
Waning Gibbous, 62% of the Moon is Illuminated
Nov 5
Waning Gibbous
Nov 6
Last Quarter
Nov 13
New
Nov 20
First Quarter
Nov 28
Full

Hourly Weather History & Observations

Time (MST) Temp. Windchill Dew Point Humidity Pressure Visibility Wind Dir Wind Speed Gust Speed Precip Events Conditions
12:53 AM 35.1 °F 30.1 °F 30.9 °F 85% 30.22 in 10.0 mi SSE 5.8 mph - N/A   Mostly Cloudy
1:53 AM 36.0 °F 29.0 °F 30.9 °F 82% 30.19 in 10.0 mi SSE 9.2 mph - N/A   Clear
2:53 AM 36.0 °F 29.0 °F 30.9 °F 82% 30.16 in 10.0 mi SSE 9.2 mph - N/A   Clear
3:53 AM 36.0 °F 28.5 °F 30.9 °F 82% 30.13 in 10.0 mi SSE 10.4 mph - N/A   Clear
4:53 AM 37.0 °F 29.8 °F 30.9 °F 79% 30.11 in 10.0 mi SSE 10.4 mph - N/A   Clear
5:53 AM 37.0 °F 29.3 °F 30.9 °F 79% 30.09 in 10.0 mi SSE 11.5 mph - N/A   Clear
6:53 AM 37.0 °F 30.4 °F 30.9 °F 79% 30.09 in 10.0 mi SSE 9.2 mph - N/A   Clear
7:53 AM 37.9 °F 30.5 °F 30.9 °F 76% 30.08 in 10.0 mi SSE 11.5 mph - N/A   Clear
8:53 AM 41.0 °F 35.2 °F 33.1 °F 73% 30.04 in 10.0 mi SSE 9.2 mph - N/A   Clear
9:53 AM 45.0 °F 39.3 °F 36.0 °F 71% 29.99 in 10.0 mi SSE 11.5 mph - N/A   Clear
10:53 AM 50.0 °F - 37.9 °F 63% 30.00 in 10.0 mi SE 5.8 mph - N/A   Clear
11:53 AM 57.9 °F - 39.0 °F 49% 29.95 in 10.0 mi SW 9.2 mph - N/A   Clear
12:53 PM 61.0 °F - 41.0 °F 48% 29.92 in 10.0 mi West 9.2 mph - N/A   Mostly Cloudy
1:53 PM 68.0 °F - 41.0 °F 37% 29.88 in 10.0 mi West 18.4 mph 24.2 mph N/A   Partly Cloudy
2:53 PM 69.1 °F - 41.0 °F 36% 29.87 in 10.0 mi NW 11.5 mph 29.9 mph N/A   Mostly Cloudy
3:53 PM 62.1 °F - 45.0 °F 53% 29.90 in 10.0 mi NW 12.7 mph - 0.01 in   Overcast
4:53 PM 57.9 °F - 42.1 °F 56% 29.98 in 10.0 mi NNW 26.5 mph 36.8 mph 0.01 in   Overcast
5:53 PM 51.1 °F - 39.0 °F 63% 30.03 in 10.0 mi NNW 20.7 mph 27.6 mph N/A   Clear
6:53 PM 46.0 °F 39.3 °F 36.0 °F 68% 30.09 in 10.0 mi NNE 16.1 mph - N/A   Mostly Cloudy
7:53 PM 43.0 °F 37.7 °F 36.0 °F 76% 30.14 in 10.0 mi North 9.2 mph - N/A   Scattered Clouds
8:53 PM 39.9 °F 34.5 °F 33.1 °F 77% 30.16 in 10.0 mi NW 8.1 mph - N/A   Clear
9:53 PM 37.0 °F 30.4 °F 32.0 °F 82% 30.18 in 10.0 mi WNW 9.2 mph - N/A   Clear
10:53 PM 37.0 °F 29.8 °F 32.0 °F 82% 30.18 in 10.0 mi WNW 10.4 mph - N/A   Clear
11:53 PM 35.1 °F 27.4 °F 30.9 °F 85% 30.18 in 10.0 mi WNW 10.4 mph - N/A   Clear